Location: Appeville
(49.3218°N, 1.3427°W)
Time: 18:23:56
(UTC+00:00)

Cosmos 1703 Rocket - Pass Details

Date: 08 December 2019
Orbit: 604 x 634 km, 82.5° (Epoch: 19 January)

Event Time Altitude Azimuth Distance (km) Brightness Sun altitude
Exits shadow 05:22:13 30° 354° (N) 1,127 4.7 -22.5°
Maximum altitude 05:24:23 83° 79° (E) 639 3.5 -22.2°
Drops below altitude 10° 05:28:49 10° 169° (S) 1,990 6.4 -21.5°
Sets 05:31:01 0° 170° (S) 2,886 7.3 -21.1°
